Regional Weather Roundup
Issued by NWS Portland, ME

Home | Current Version | Previous Version | Text Only | Print | Product List | Glossary On
Versions: 1 2 3 4 5 6 7 8 9 10 11 12 13 14 15 16 17 18 19 20 21 22 23 24 25 26 27 28 29 30 31 32 33 34 35 36 37 38 39 40 41 42 43 44 45 46 47 48 49 50
000
ASUS41 KGYX 141410
RWRGYX
WEATHER ROUNDUP FOR MAINE AND NEW HAMPSHIRE
NATIONAL WEATHER SERVICE GRAY ME
900 AM EST SUN FEB 14 2016

MEZ002-005-006-010-012-015-018-020-021-024-026-027-029-141500-
MAINE

CITY           SKY/WX    TMP DP  RH WIND       PRES   REMARKS
PORTLAND       SUNNY     -3 -19  46 NW14      30.29R WCI -22
SANFORD        SUNNY     -6 -18  54 NW10      30.28R WCI -23
BAR HARBOR     MOSUNNY    0 -13  55 N12G24    30.17R WCI -18
WISCASSET      SUNNY     -5 -22  44 NW8       30.29R
ROCKLAND       SUNNY     -3 -16  53 NW12G18   30.22R WCI -21
FRYEBURG       SUNNY     -3 -23  37 CALM      30.25R
LEWISTONAUBURN SUNNY     -6 -27  34 NW13G22   30.24R WCI -25
AUGUSTA        SUNNY     -8 -23  47 NW10      30.24R WCI -26
WATERVILLE     SUNNY     -5 -21  46 NW12      30.21R WCI -23
BANGOR         MOSUNNY   -7 -19  56 NW12      30.21R WCI -26
GREENVILLE       N/A    -15 -25  60 NW15G25   30.02R WCI -39
MILLINOCKET    SUNNY     -8 -22  50 W13G26    30.17R WCI -28
HOULTON        SUNNY     -5 -16  59 NW16G23   30.10R WCI -27
PRESQUE ISLE   SUNNY     -5 -16  59 W15       30.11R WCI -26
FRENCHVILLE    SUNNY    -11 -21  61 NW10      30.02S WCI -30
CARIBOU        SUNNY     -7 -17  62 NW9       30.08R
$$

NHZ002-005-008-009-011-012-014-141500-
NEW HAMPSHIRE

CITY           SKY/WX    TMP DP  RH WIND       PRES   REMARKS
PORTSMOUTH     MOSUNNY   -6 -23  43 W14G20    30.32R WCI -26
ROCHESTER      SUNNY     -6 -23  43 NW12G18   30.26R WCI -25
NASHUA         SUNNY     -6 -22  45 NW14      30.37R WCI -26
MANCHESTER     SUNNY     -7 -23  45 NW15G23   30.35R WCI -28
CONCORD        SUNNY     -9 -24  48 NW16G23   30.36R WCI -32
LACONIA        SUNNY     -9 -27  41 SW13G18   30.32R WCI -30
PLYMOUTH       FAIR     -11 -26  49 W21G28    30.34R WCI -37
BERLIN         SUNNY    -14 -26  55 VRB7G17   30.27R
WHITEFIELD     SUNNY    -15 -25  60 W6        30.33R
JAFFREY        SUNNY    -10 -25  47 VRB5      30.28R
KEENE          MOSUNNY   -9 -24  49 N13       30.39S WCI -30
LEBANON        SUNNY    -10 -23  52 VRB3      30.40R
MT WASHINGTON  MOSUNNY  -24 -42  38 NW48G56     N/A  WCI -64
$$

VTZ005-007-008-141500-
VERMONT

CITY           SKY/WX    TMP DP  RH WIND       PRES   REMARKS
ST JOHNSBURY     N/A    -15 -26  57 MISG      30.39R
MONTPELIER     FAIR     -16 -24  67 N8        30.36F
BURLINGTON     FAIR     -11 -22  58 N7        30.50R
$$

MAZ007-012-024-CTZ003-RIZ002-NYZ038-NYZ072-141500-
SOUTHERN NEW ENGLAND AND NY

CITY           SKY/WX    TMP DP  RH WIND       PRES   REMARKS
BOSTON         SUNNY     -5 -21  46 NW18G29   30.37R WCI -28
WORCESTER      SUNNY    -11 -25  50 NW20G30   30.26R WCI -36
NANTUCKET      CLOUDY     1  -6  72 NW20      30.32R HAZE    WCI -20
PROVIDENCE     SUNNY     -5 -23  41 N15G22    30.40R WCI -26
HARTFORD       SUNNY     -8 -25  43 NW9       30.45R
ALBANY         SUNNY    -10 -24  50 NW7       30.55R
NEW YORK CITY  MOSUNNY    3 -11  52 NW20      30.53R WCI -18
$$

ANZ081-ANZ082-ANZ150-NHZ014-MEZ023>029-141500-
COASTAL MARINE OBSERVATIONS

STATION/POSITION TIME  TEMP    WIND        PRES    WAVE
                       AIR SEA DIR/SP/G            HT/PER
                 (UTC) (F)     (DEG/KT/KT) (MB)    (FT/S)
MOUNT DESERT ROC 1400    2     330/ 34/ 37 1020.1R
MATINICUS ROCK   1300          340/ 31/ 37 1021.2R
ISLE OF SHOALS   1300   -7     310/ 23/ 27 1025.3R
CASHES LEDGE BUO 1350    8 41  330/ 25/ 33 1022.1R  10/ 7
GEORGES BANK BUO 1350   18 44              1017.2R  14/11
$$

.............KEY..............
   WCI - WIND CHILL
   TC  - TEMPERATURE IN CELSIUS
   VSB - VISIBILITY IN MILES
   HX  - HEAT INDEX
   FAIR- INDICATES FEW OR NO CLOUDS BELOW 12,000 FT, WITH NO
         SIGNIFICANT WEATHER AND/OR OBSTRUCTIONS TO VISIBILITY.





USA.gov is the U.S. government's official web portal to all federal, state and local government web resources and services.